Location: Newark
(50.2292°N, 18.1272°E)
Time: 14:01:54
(UTC+00:00)

N. Korean satellite - Visible Passes

Search period start: 18 September 2020 00:00
Search period end: 28 September 2020 00:00
Orbit: 455 x 503 km, 97.2° (Epoch: 17 September)

Date Brightness Start Highest point End Pass type
(mag) Time Alt. Az. Time Alt. Az. Time Alt. Az.
18 Sep 9.4 03:41:14 10° NE 03:44:16 23° E 03:47:14 10° SSE visible
19 Sep 10.0 03:16:18 10° ENE 03:18:01 13° E 03:19:42 10° ESE visible
21 Sep 8.7 03:56:18 10° NNE 03:59:41 33° E 04:03:01 10° SSE visible
22 Sep 9.7 03:30:53 10° NE 03:33:30 18° E 03:36:04 10° SE visible
25 Sep 9.2 03:45:48 10° NE 03:48:56 26° E 03:51:59 10° SSE visible
26 Sep 9.9 03:20:41 10° NE 03:22:40 14° E 03:24:39 10° ESE visible
